FWV10 LIMJ-LYTV

Flight info

Callsign FWV10
Flight time N/A
Altitude 35000
Route ITCAP DCT LUPOS DCT UVOKI DCT LURUT DCT EDUGI DCT ELGUS DCT BALHA/N0382F190 L187 BIGLO
Aircraft A320/M-SDE3FGHIRWY/LB1

Departure

Time N/A
Airport Genoa Cristoforo Colombo Airport (LIMJ)

Arrival

Time 2026-05-06 14:49
Airport Tivat Airport (LYTV)
Time Latitude Longitude Altitude Speed Heading
2026-05-06 14:06 43.95289 13.38776 34904 ft 481 kts 114°
2026-05-06 14:06 43.93111 13.47554 34908 ft 481 kts 114°
2026-05-06 14:07 43.90925 13.56336 34899 ft 482 kts 115°
2026-05-06 14:07 43.88715 13.65133 34907 ft 483 kts 115°
2026-05-06 14:08 43.86500 13.73936 34908 ft 484 kts 115°
2026-05-06 14:08 43.84286 13.82742 34922 ft 484 kts 115°
2026-05-06 14:09 43.82060 13.91550 34912 ft 484 kts 114°
2026-05-06 14:09 43.79824 14.00334 34933 ft 483 kts 115°
2026-05-06 14:10 43.77575 14.09100 34948 ft 483 kts 115°
2026-05-06 14:10 43.75343 14.17796 34947 ft 483 kts 115°
2026-05-06 14:11 43.73094 14.26551 34932 ft 483 kts 114°
2026-05-06 14:11 43.70844 14.35302 34933 ft 484 kts 114°
2026-05-06 14:12 43.68585 14.44066 34927 ft 484 kts 115°
2026-05-06 14:12 43.66307 14.52825 34938 ft 485 kts 115°
2026-05-06 14:13 43.64021 14.61584 34940 ft 485 kts 115°
2026-05-06 14:13 43.61726 14.70348 34945 ft 485 kts 115°
2026-05-06 14:14 43.59425 14.79094 34948 ft 485 kts 115°
2026-05-06 14:14 43.57116 14.87844 34950 ft 485 kts 115°
2026-05-06 14:15 43.54800 14.96585 34942 ft 485 kts 115°
2026-05-06 14:15 43.52409 15.05267 34949 ft 484 kts 116°
2026-05-06 14:16 43.49960 15.13842 34960 ft 484 kts 116°
2026-05-06 14:16 43.47484 15.22471 34963 ft 484 kts 116°
2026-05-06 14:17 43.45025 15.31101 34955 ft 484 kts 116°
2026-05-06 14:17 43.42571 15.39716 34981 ft 483 kts 116°
2026-05-06 14:18 43.40111 15.48309 34976 ft 482 kts 116°
2026-05-06 14:18 43.37648 15.56882 34984 ft 482 kts 116°
2026-05-06 14:19 43.35181 15.65437 34976 ft 481 kts 116°
2026-05-06 14:19 43.32712 15.73977 34981 ft 480 kts 116°
2026-05-06 14:20 43.30246 15.82478 34993 ft 479 kts 116°
2026-05-06 14:20 43.27770 15.90973 34994 ft 479 kts 116°
2026-05-06 14:21 43.25289 15.99449 34998 ft 479 kts 116°
2026-05-06 14:21 43.22804 16.07904 35000 ft 477 kts 116°
2026-05-06 14:22 43.20324 16.16347 35009 ft 477 kts 116°
2026-05-06 14:22 43.17846 16.24768 35016 ft 476 kts 116°
2026-05-06 14:23 43.15372 16.33109 35023 ft 476 kts 116°
2026-05-06 14:23 43.12857 16.41543 35028 ft 475 kts 116°
2026-05-06 14:24 43.10377 16.49858 35039 ft 475 kts 116°
2026-05-06 14:24 43.07881 16.58223 35039 ft 474 kts 116°
2026-05-06 14:25 43.05378 16.66572 35040 ft 474 kts 116°
2026-05-06 14:25 43.02861 16.74902 35020 ft 474 kts 115°
2026-05-06 14:26 43.00340 16.83244 35021 ft 475 kts 115°
2026-05-06 14:26 42.97813 16.91580 35026 ft 475 kts 115°
2026-05-06 14:27 42.95284 16.99908 35030 ft 475 kts 115°
2026-05-06 14:27 42.92745 17.08245 35024 ft 475 kts 115°
2026-05-06 14:28 42.90199 17.16558 35033 ft 475 kts 115°
2026-05-06 14:28 42.87651 17.24860 35042 ft 474 kts 115°
2026-05-06 14:29 42.85533 17.31754 34724 ft 475 kts 115°
2026-05-06 14:29 42.84245 17.35925 33708 ft 483 kts 115°
2026-05-06 14:29 42.82932 17.40165 32702 ft 488 kts 115°
2026-05-06 14:30 42.81607 17.44440 31653 ft 493 kts 115°
2026-05-06 14:30 42.80264 17.48769 30666 ft 498 kts 115°
2026-05-06 14:30 42.78920 17.53108 29968 ft 496 kts 115°
2026-05-06 14:30 42.77582 17.57424 29245 ft 492 kts 115°
2026-05-06 14:31 42.76281 17.61607 28582 ft 487 kts 115°
2026-05-06 14:31 42.74938 17.65914 27889 ft 483 kts 115°
2026-05-06 14:31 42.73628 17.70099 27223 ft 478 kts 116°
2026-05-06 14:31 42.72327 17.74241 26567 ft 475 kts 116°
2026-05-06 14:32 42.71036 17.78353 25921 ft 471 kts 116°
2026-05-06 14:32 42.69755 17.82435 25275 ft 468 kts 116°
2026-05-06 14:32 42.68498 17.86440 24648 ft 465 kts 116°
2026-05-06 14:32 42.67214 17.90527 24026 ft 462 kts 116°
2026-05-06 14:33 42.65968 17.94476 23389 ft 459 kts 116°
2026-05-06 14:33 42.64716 17.98441 22793 ft 454 kts 116°
2026-05-06 14:33 42.63479 18.02362 22254 ft 448 kts 116°
2026-05-06 14:33 42.62256 18.06223 21724 ft 443 kts 116°
2026-05-06 14:34 42.61095 18.09879 21240 ft 437 kts 116°
2026-05-06 14:34 42.59897 18.13644 20733 ft 431 kts 116°
2026-05-06 14:34 42.58696 18.17408 20229 ft 426 kts 116°
2026-05-06 14:34 42.57521 18.21077 19745 ft 422 kts 116°
2026-05-06 14:35 42.56350 18.24729 19136 ft 421 kts 116°
2026-05-06 14:35 42.55078 18.28272 18632 ft 415 kts 124°
2026-05-06 14:35 42.53482 18.31493 18104 ft 409 kts 128°
2026-05-06 14:35 42.51868 18.34642 17607 ft 404 kts 128°
2026-05-06 14:36 42.50276 18.37758 17103 ft 401 kts 128°
2026-05-06 14:36 42.48699 18.40845 16612 ft 397 kts 127°
2026-05-06 14:36 42.47130 18.43906 16106 ft 394 kts 128°
2026-05-06 14:36 42.45574 18.46939 15622 ft 391 kts 128°
2026-05-06 14:37 42.44021 18.49945 15113 ft 389 kts 128°
2026-05-06 14:37 42.42454 18.52907 14632 ft 383 kts 129°
2026-05-06 14:37 42.40892 18.55808 14129 ft 381 kts 129°
2026-05-06 14:37 42.39363 18.58664 13593 ft 380 kts 128°
2026-05-06 14:38 42.37835 18.61568 13066 ft 377 kts 128°
2026-05-06 14:38 42.36332 18.64452 12551 ft 374 kts 128°
2026-05-06 14:38 42.34833 18.67315 12020 ft 371 kts 130°
2026-05-06 14:38 42.33060 18.69777 11502 ft 362 kts 145°
2026-05-06 14:39 42.30930 18.71506 10976 ft 354 kts 160°
2026-05-06 14:39 42.28601 18.72431 10552 ft 344 kts 174°
2026-05-06 14:39 42.26302 18.72717 10418 ft 319 kts 178°
2026-05-06 14:39 42.24168 18.72962 10270 ft 297 kts 178°
2026-05-06 14:40 42.22143 18.73204 9829 ft 288 kts 178°
2026-05-06 14:40 42.20176 18.73437 9640 ft 283 kts 178°
2026-05-06 14:40 42.18212 18.73663 9526 ft 283 kts 178°
2026-05-06 14:40 42.16250 18.73889 9401 ft 282 kts 179°
2026-05-06 14:41 42.14294 18.74333 8890 ft 291 kts 166°
2026-05-06 14:41 42.12419 18.75295 8615 ft 285 kts 162°
2026-05-06 14:41 42.10634 18.76232 8449 ft 264 kts 163°
2026-05-06 14:41 42.09063 18.77383 8154 ft 257 kts 140°
2026-05-06 14:42 42.08120 18.79401 7740 ft 257 kts 106°
2026-05-06 14:42 42.08119 18.81769 7290 ft 258 kts 74°
2026-05-06 14:42 42.08742 18.84051 6894 ft 260 kts 70°
2026-05-06 14:42 42.09632 18.86134 6482 ft 263 kts 44°
2026-05-06 14:43 42.11173 18.87367 6211 ft 258 kts 14°
2026-05-06 14:43 42.12932 18.87458 5860 ft 253 kts 345°
2026-05-06 14:43 42.14638 18.86843 5451 ft 254 kts 343°
2026-05-06 14:43 42.16312 18.86190 5056 ft 252 kts 338°
2026-05-06 14:44 42.17949 18.85333 4421 ft 255 kts 338°
2026-05-06 14:44 42.19589 18.84483 4059 ft 245 kts 338°
2026-05-06 14:44 42.21158 18.83787 3760 ft 231 kts 345°
2026-05-06 14:45 42.24188 18.82886 2942 ft 208 kts 345°
2026-05-06 14:45 42.25534 18.82356 2660 ft 195 kts 343°
2026-05-06 14:45 42.26766 18.81760 2489 ft 182 kts 339°
2026-05-06 14:45 42.27898 18.81141 2418 ft 169 kts 339°
2026-05-06 14:46 42.28972 18.80582 2414 ft 162 kts 339°
2026-05-06 14:46 42.30027 18.80030 2413 ft 164 kts 339°
2026-05-06 14:46 42.31062 18.79418 2329 ft 160 kts 335°
2026-05-06 14:46 42.32078 18.78791 2203 ft 161 kts 335°
2026-05-06 14:47 42.33079 18.78140 1914 ft 159 kts 334°
2026-05-06 14:47 42.34061 18.77476 1595 ft 161 kts 337°
2026-05-06 14:47 42.35080 18.76834 1394 ft 162 kts 339°
2026-05-06 14:47 42.36111 18.76221 1158 ft 162 kts 339°
2026-05-06 14:48 42.37129 18.75551 828 ft 159 kts 334°
2026-05-06 14:48 42.38083 18.74850 521 ft 155 kts 329°
2026-05-06 14:48 42.38962 18.74030 239 ft 153 kts 323°
2026-05-06 14:48 42.39792 18.73124 32 ft 153 kts 320°
2026-05-06 14:49 42.40518 18.72267 11 ft 118 kts 319°
2026-05-06 14:49 42.41010 18.71688 12 ft 66 kts 319°
2026-05-06 14:49 42.41232 18.71423 10 ft 19 kts 319°
2026-05-06 14:49 42.41309 18.71356 11 ft 12 kts
2026-05-06 14:50 42.41358 18.71422 13 ft 9 kts 75°
2026-05-06 14:50 42.41332 18.71494 13 ft 9 kts 139°
2026-05-06 14:50 42.41280 18.71556 14 ft 10 kts 139°
2026-05-06 14:50 42.41231 18.71614 15 ft 10 kts 138°
2026-05-06 14:51 42.41177 18.71677 14 ft 11 kts 140°
2026-05-06 14:51 42.41169 18.71716 14 ft 2 kts 50°
2026-05-06 14:51 42.41175 18.71730 14 ft 4 kts 66°
2026-05-06 14:51 42.41158 18.71753 14 ft 0 kts 162°